BEIDOU-3 M15 1 43647U 18078A 21111.36609757 -.00000082 00000-0 10000-3 0 9992 2 43647 55.2111 5.0659 0007649 356.9331 295.9891 1.86233040 17099 BEIDOU-3 M16 1 43648U 18078B 21111.32031513 -.00000083 00000-0 10000-3 0 9999 2 43648 55.2080 5.0754 0005705 4.6855 166.0929 1.86232253 17118 CZ-3B R/B 1 43649U 18078C 21111.56708440 .00002388 00000-0 49883-3 0 9996 2 43649 54.8383 223.1755 5613757 112.9685 314.1180 4.62478580 41906 YZ-1 R/B 1 43650U 18078D 21111.32171845 -.00000076 00000-0 00000+0 0 9992 2 43650 55.0334 7.7937 0103932 29.5721 331.0456 1.77585760 16327